GW4377 Weather Reports


Display with metric or nautical units.
time (UTC)temp
F
wind
direction
speed
MPH
gust
MPH
rain 1hr
in
rain 24hr
in
rain mn
in
humidity
%
barometer
mb
20260504220003 77 210 11.0 21.0 0.00 0.00 0.00 47 992.7
20260504214501 77 228 17.0 26.0 0.00 0.00 0.00 45 992.6
20260504213009 77 218 13.0 22.0 0.00 0.00 0.00 44 992.9
20260504210002 76 215 14.0 23.0 0.00 0.00 0.00 44 993.1
20260504193003 76 213 14.0 22.0 0.00 0.00 0.00 48 994.2
20260504180007 75 222 10.0 20.0 0.00 0.00 0.00 57 995.0
20260504173002 75 199 18.0 22.0 0.00 0.00 0.00 54 995.5
20260504050009 57 168 0.0 7.0 0.00 0.00 0.00 70 997.4
20260504044515 57 168 0.0 5.0 0.00 0.00 0.00 67 997.5
20260504043009 58 220 2.0 8.0 0.00 0.00 0.00 66 997.7
20260504041508 58 195 1.0 12.0 0.00 0.00 0.00 65 997.7
20260504040011 58 212 7.0 13.0 0.00 0.00 0.00 65 997.8
20260504034512 58 331 2.0 4.0 0.00 0.00 0.00 68 997.8
20260504033011 58 359 1.0 5.0 0.00 0.00 0.00 67 998.1
20260504030010 59 326 1.0 6.0 0.00 0.00 0.00 65 998.1
20260504024515 60 324 0.0 1.0 0.00 0.00 0.00 64 998.1
20260504023008 61 359 0.0 8.0 0.00 0.00 0.00 62 998.0
20260504021510 62 325 3.0 10.0 0.00 0.00 0.00 58 998.2
20260504020015 62 286 2.0 5.0 0.00 0.00 0.00 57 997.9
20260504014511 63 293 2.0 7.0 0.00 0.00 0.00 56 997.7
20260504013010 63 304 3.0 7.0 0.00 0.00 0.00 54 997.7
20260504010010 64 249 5.0 10.0 0.00 0.00 0.00 52 997.5
20260504001507 66 197 3.0 6.0 0.00 0.00 0.00 49 997.3
20260504000010 67 210 3.0 8.0 0.00 0.00 0.00 49 997.7
20260503234507 67 197 5.0 7.0 0.00 0.00 0.00 48 997.8
20260503233010 67 210 5.0 16.0 0.00 0.00 0.00 47 998.0
20260503231508 68 239 4.0 10.0 0.00 0.00 0.00 46 998.1
20260503230010 68 245 4.0 9.0 0.00 0.00 0.00 46 998.1
20260503224507 68 226 8.0 14.0 0.00 0.00 0.00 44 998.2
20260503223008 68 205 10.0 17.0 0.00 0.00 0.00 43 998.2